GW2464 Weather Reports


Display with metric or nautical units.
time (UTC)temp
F
wind
direction
speed
MPH
gust
MPH
rain 1hr
in
rain 24hr
in
rain mn
in
humidity
%
barometer
mb
20260505052147 46 8 0.0 0.0 0.00 0.00 0.00 88 1009.1
20260505051643 47 8 0.0 0.0 0.00 0.00 0.00 86 1008.7
20260505051142 47 8 0.0 0.0 0.00 0.00 0.00 86 1008.7
20260505050639 48 8 1.0 1.0 0.00 0.00 0.00 85 1008.8
20260505050138 47 8 0.0 1.0 0.00 0.00 0.00 85 1008.8
20260505041607 50 1 1.0 1.0 0.00 0.00 0.00 80 1008.8
20260505041104 50 3 1.0 1.0 0.00 0.00 0.00 79 1008.9
20260505040602 50 12 1.0 1.0 0.00 0.00 0.00 78 1008.8
20260505040059 50 3 1.0 1.0 0.00 0.00 0.00 79 1008.8
20260505035555 50 357 1.0 1.0 0.00 0.00 0.00 80 1008.5
20260505035051 51 9 1.0 1.0 0.00 0.00 0.00 78 1008.6
20260505034548 52 1 0.0 1.0 0.00 0.00 0.00 77 1008.8
20260505034045 52 0 0.0 0.0 0.00 0.00 0.00 74 1008.8
20260505033542 53 353 0.0 1.0 0.00 0.00 0.00 75 1008.6
20260505033040 53 359 0.0 0.0 0.00 0.00 0.00 75 1008.8
20260505032538 53 358 0.0 0.0 0.00 0.00 0.00 73 1008.9
20260505032034 54 4 0.0 1.0 0.00 0.00 0.00 72 1008.7
20260505031531 54 10 0.0 0.0 0.00 0.00 0.00 72 1008.9
20260505031027 53 17 1.0 1.0 0.00 0.00 0.00 72 1009.1
20260505030525 54 177 0.0 0.0 0.00 0.00 0.00 71 1009.0
20260505030021 54 1 0.0 1.0 0.00 0.00 0.00 71 1009.2
20260505025516 54 1 0.0 0.0 0.00 0.00 0.00 72 1009.3
20260505025016 54 7 0.0 0.0 0.00 0.00 0.00 72 1009.1
20260505024512 53 0 0.0 0.0 0.00 0.00 0.00 72 1009.2
20260505024009 53 0 0.0 0.0 0.00 0.00 0.00 72 1009.1
20260505023506 54 7 0.0 0.0 0.00 0.00 0.00 70 1009.2
20260505023004 54 6 0.0 0.0 0.00 0.00 0.00 71 1009.1
20260505022501 54 4 0.0 0.0 0.00 0.00 0.00 71 1009.1
20260505021958 54 1 0.0 1.0 0.00 0.00 0.00 71 1009.2
20260505021455 54 5 1.0 1.0 0.00 0.00 0.00 71 1009.0
20260505020950 54 1 0.0 0.0 0.00 0.00 0.00 71 1009.2
20260505020445 53 7 1.0 1.0 0.00 0.00 0.00 73 1009.2
20260505015943 53 13 1.0 1.0 0.00 0.00 0.00 73 1009.1
20260505015440 53 356 1.0 2.0 0.00 0.00 0.00 71 1008.8
20260505014937 53 8 1.0 1.0 0.00 0.00 0.00 72 1009.1
20260505014434 53 6 2.0 2.0 0.00 0.00 0.00 71 1009.0
20260505013931 54 13 1.0 2.0 0.00 0.00 0.00 69 1009.0
20260505013428 54 17 1.0 2.0 0.00 0.00 0.00 69 1008.9
20260505012926 55 0 1.0 1.0 0.00 0.00 0.00 68 1008.8
20260505012424 54 3 1.0 1.0 0.00 0.00 0.00 68 1009.1
20260505011920 54 7 1.0 1.0 0.00 0.00 0.00 70 1008.9
20260505011416 55 0 0.0 1.0 0.00 0.00 0.00 70 1008.8
20260505010913 55 6 1.0 1.0 0.00 0.00 0.00 66 1008.7
20260505010409 56 6 0.0 0.0 0.00 0.00 0.00 66 1008.7
20260505005905 56 357 0.0 0.0 0.00 0.00 0.00 66 1008.8
20260505005402 56 0 0.0 0.0 0.00 0.00 0.00 65 1008.7
20260505004859 56 359 0.0 0.0 0.00 0.00 0.00 66 1008.6
20260505004355 56 7 0.0 0.0 0.00 0.00 0.00 63 1008.2
20260505003853 57 3 1.0 1.0 0.00 0.00 0.00 62 1008.7
20260505003350 58 358 0.0 0.0 0.00 0.00 0.00 61 1008.5
20260505002846 59 1 1.0 1.0 0.00 0.00 0.00 60 1008.4
20260505002343 60 8 0.0 0.0 0.00 0.00 0.00 58 1008.4
20260505001841 61 354 0.0 0.0 0.00 0.00 0.00 57 1008.2
20260505001338 62 347 0.0 0.0 0.00 0.00 0.00 54 1008.2
20260505000835 63 342 0.0 1.0 0.00 0.00 0.00 51 1008.1
20260505000333 63 76 1.0 1.0 0.00 0.00 0.00 51 1007.9
20260504235829 63 10 0.0 1.0 0.00 0.00 0.00 51 1007.7
20260504235327 64 352 1.0 1.0 0.00 0.00 0.00 49 1008.0
20260504234823 65 206 2.0 2.0 0.00 0.00 0.00 49 1007.9
20260504234321 65 220 2.0 2.0 0.00 0.00 0.00 48 1007.7
20260504233817 65 275 3.0 3.0 0.00 0.00 0.00 49 1007.8
20260504233313 65 166 2.0 2.0 0.00 0.00 0.00 48 1007.8
20260504232810 66 286 2.0 2.0 0.00 0.00 0.00 47 1007.8
20260504232307 66 191 2.0 3.0 0.00 0.00 0.00 47 1007.6
20260504231804 66 206 3.0 3.0 0.00 0.00 0.00 47 1007.6
20260504231300 66 195 3.0 3.0 0.00 0.00 0.00 46 1007.5
20260504230756 66 221 3.0 3.0 0.00 0.00 0.00 45 1007.4
20260504230254 66 182 4.0 5.0 0.00 0.00 0.00 47 1007.4
20260504225753 67 169 3.0 5.0 0.00 0.00 0.00 46 1007.4
20260504225249 67 264 1.0 1.0 0.00 0.00 0.00 45 1007.5
20260504224746 67 213 2.0 2.0 0.00 0.00 0.00 46 1007.4
20260504224243 67 156 3.0 3.0 0.00 0.00 0.00 45 1007.2
20260504223740 67 217 4.0 5.0 0.00 0.00 0.00 45 1007.4
20260504223235 67 202 3.0 3.0 0.00 0.00 0.00 44 1007.1
20260504222732 68 351 2.0 3.0 0.00 0.00 0.00 45 1007.5
20260504222229 68 179 4.0 6.0 0.00 0.00 0.00 45 1007.5
20260504221727 68 171 4.0 5.0 0.00 0.00 0.00 44 1007.3
20260504221224 68 182 4.0 5.0 0.00 0.00 0.00 44 1007.3
20260504220720 68 253 2.0 3.0 0.00 0.00 0.00 44 1007.3
20260504220218 68 192 3.0 3.0 0.00 0.00 0.00 44 1007.4
20260504215714 68 227 3.0 3.0 0.00 0.00 0.00 45 1007.4
20260504215212 68 183 4.0 6.0 0.00 0.00 0.00 43 1007.6
20260504214707 68 165 4.0 6.0 0.00 0.00 0.00 44 1007.5
20260504214204 68 164 3.0 3.0 0.00 0.00 0.00 44 1007.7
20260504213701 68 139 4.0 6.0 0.00 0.00 0.00 43 1007.4
20260504213157 68 268 4.0 6.0 0.00 0.00 0.00 43 1007.5
20260504212654 69 208 3.0 3.0 0.00 0.00 0.00 44 1007.6
20260504212150 68 283 1.0 2.0 0.00 0.00 0.00 44 1007.6
20260504211648 68 187 7.0 9.0 0.00 0.00 0.00 43 1007.8
20260504211144 67 250 3.0 3.0 0.00 0.00 0.00 45 1007.7
20260504210642 68 246 4.0 5.0 0.00 0.00 0.00 43 1007.7
20260504210138 68 240 5.0 6.0 0.00 0.00 0.00 43 1007.9
20260504205636 67 225 5.0 7.0 0.00 0.00 0.00 43 1008.0
20260504205133 68 236 4.0 5.0 0.00 0.00 0.00 43 1008.1
20260504204631 68 216 3.0 3.0 0.00 0.00 0.00 43 1007.8
20260504204130 67 269 5.0 8.0 0.00 0.00 0.00 44 1007.8
20260504203628 67 192 3.0 5.0 0.00 0.00 0.00 45 1008.4
20260504203125 68 188 13.0 17.0 0.00 0.00 0.00 43 1008.1
20260504202620 66 239 4.0 5.0 0.00 0.00 0.00 44 1008.2
20260504202117 67 181 8.0 13.0 0.00 0.00 0.00 43 1008.2
20260504201614 67 152 4.0 5.0 0.00 0.00 0.00 44 1008.4
20260504201112 67 233 7.0 8.0 0.00 0.00 0.00 44 1008.4
20260504200609 67 131 2.0 3.0 0.00 0.00 0.00 45 1008.4
20260504200105 68 185 2.0 5.0 0.00 0.00 0.00 42 1008.6
20260504195601 69 198 5.0 6.0 0.00 0.00 0.00 43 1008.7
20260504195057 69 203 8.0 11.0 0.00 0.00 0.00 44 1008.4
20260504194554 68 218 3.0 6.0 0.00 0.00 0.00 44 1008.4
20260504194050 67 246 6.0 7.0 0.00 0.00 0.00 44 1008.5
20260504193546 66 215 3.0 5.0 0.00 0.00 0.00 47 1008.8
20260504193045 66 266 3.0 3.0 0.00 0.00 0.00 46 1008.6
20260504192543 67 245 4.0 5.0 0.00 0.00 0.00 46 1008.7
20260504192041 66 188 5.0 7.0 0.00 0.00 0.00 44 1008.7
20260504191538 66 180 7.0 9.0 0.00 0.00 0.00 45 1009.0
20260504191034 67 207 4.0 5.0 0.00 0.00 0.00 45 1008.6
20260504190531 66 163 5.0 7.0 0.00 0.00 0.00 45 1008.6
20260504190027 65 228 6.0 7.0 0.00 0.00 0.00 45 1008.8
20260504185524 65 250 8.0 13.0 0.00 0.00 0.00 46 1008.9
20260504185021 66 237 6.0 7.0 0.00 0.00 0.00 44 1008.8
20260504184516 67 239 4.0 5.0 0.00 0.00 0.00 46 1008.9
20260504184012 66 259 6.0 8.0 0.00 0.00 0.00 43 1009.0
20260504183509 65 208 4.0 5.0 0.00 0.00 0.00 45 1009.0
20260504183008 64 238 5.0 6.0 0.00 0.00 0.00 46 1009.0
20260504182504 66 253 5.0 7.0 0.00 0.00 0.00 44 1009.0
20260504182001 65 208 3.0 7.0 0.00 0.00 0.00 45 1009.0
20260504181458 66 205 4.0 5.0 0.00 0.00 0.00 45 1009.0
20260504180956 68 209 6.0 7.0 0.00 0.00 0.00 44 1009.2
20260504180455 66 102 3.0 3.0 0.00 0.00 0.00 46 1009.2
20260504175953 66 207 8.0 13.0 0.00 0.00 0.00 43 1009.0
20260504175450 66 247 6.0 9.0 0.00 0.00 0.00 45 1009.3
20260504174947 65 151 5.0 6.0 0.00 0.00 0.00 47 1009.1
20260504174445 63 183 6.0 7.0 0.00 0.00 0.00 46 1009.5
20260504173942 64 246 10.0 11.0 0.00 0.00 0.00 46 1009.2
20260504173438 65 226 8.0 9.0 0.00 0.00 0.00 46 1009.5
20260504172936 66 198 3.0 5.0 0.00 0.00 0.00 45 1009.5
20260504172431 64 161 5.0 5.0 0.00 0.00 0.00 46 1009.2
20260504171928 64 47 3.0 5.0 0.00 0.00 0.00 46 1009.5
20260504171426 64 231 7.0 8.0 0.00 0.00 0.00 45 1009.7
20260504170923 64 237 4.0 5.0 0.00 0.00 0.00 47 1009.7
20260504170419 63 244 9.0 13.0 0.00 0.00 0.00 47 1009.7
20260504160338 61 166 7.0 8.0 0.00 0.00 0.00 47 1010.4
20260504150802 58 258 5.0 6.0 0.00 0.00 0.00 49 1011.0
20260504150259 59 254 4.0 6.0 0.00 0.00 0.00 48 1011.0
20260504141229 56 195 5.0 6.0 0.00 0.00 0.00 50 1011.3
20260504140725 56 282 8.0 10.0 0.00 0.00 0.00 50 1011.2
20260504140220 56 182 4.0 5.0 0.00 0.00 0.00 50 1011.2
20260504130649 52 180 4.0 6.0 0.00 0.00 0.00 54 1011.8
20260504130146 52 171 6.0 7.0 0.00 0.00 0.00 54 1011.8
20260504120110 51 183 5.0 6.0 0.00 0.00 0.00 56 1011.9
20260504110538 39 8 1.0 1.0 0.00 0.00 0.00 83 1011.8
20260504100454 35 2 1.0 2.0 0.00 0.00 0.00 89 1011.9
20260504081847 36 359 0.0 0.0 0.00 0.00 0.00 87 1011.9
20260504081343 37 355 0.0 0.0 0.00 0.00 0.00 87 1012.0
20260504080839 37 352 0.0 0.0 0.00 0.00 0.00 86 1011.8
20260504080337 37 348 0.0 1.0 0.00 0.00 0.00 86 1011.9
20260504070304 42 223 3.0 3.0 0.00 0.00 0.00 70 1011.7
20260504060224 40 187 3.0 3.0 0.00 0.00 0.00 75 1011.5